Regional Weather Roundup
Issued by NWS

Home | Current Version | Previous Version | Graphics & Text | Print | Product List | Glossary On
Versions: 1 2 3 4 5 6 7 8 9 10 11 12 13 14 15 16 17 18 19 20 21 22 23 24 25 26 27
000
ASUS45 KBOU 271807
RWRCO

WEATHER ROUNDUP FOR COLORADO
NATIONAL WEATHER SERVICE DENVER/BOULDER CO
1100 AM MST MON FEB 27 2017

NOTE: "FAIR" INDICATES FEW OR NO CLOUDS BELOW 12000 FEET WITH NO
SIGNIFICANT WEATHER AND/OR OBSTRUCTIONS TO VISIBILITY.

COZ001>005-013-030-031-271900-
...NORTHWEST COLORADO...

CITY           SKY/WX    TMP DP  RH WIND       PRES   REMARKS
CRAIG          FAIR      38  20  48 SW23G31   29.60F
HAYDEN         FAIR      37  18  44 SW25G32   29.59F
MEEKER         CLOUDY    38  25  59 S25G33    29.62F
MOUNT WERNER   NOT AVBL
STEAMBOAT SPGS CLOUDY    24  14  65 CALM      29.61F
WALDEN         NOT AVBL
$$

COZ006>008-011-271900-
...WEST CENTRAL VALLEYS...

CITY           SKY/WX    TMP DP  RH WIND       PRES   REMARKS
GRAND JUNCTION CLOUDY    43  26  51 S15       29.71S
MONTROSE       PTSUNNY   44  18  35 E17       29.74F
EAGLE          PTSUNNY   39  18  41 MISG      29.69S
RIFLE          CLOUDY    43  23  45 SW14G26   29.69S
DELTA          PTSUNNY   46  24  42 S14G24    29.75S
NUCLA          CLOUDY    37  27  65 SW15G23   29.82R
$$

COZ017>023-064>068-271900-
...SOUTHWEST COLORADO...

CITY           SKY/WX    TMP DP  RH WIND       PRES   REMARKS
DURANGO        CLOUDY    35  23  61 MISG      29.89R
CORTEZ         CLOUDY    42  23  46 S14G24    29.87R
PAGOSA SPRINGS CLOUDY    33  25  74 SW12G18   29.88S WCI  24
TELLURIDE      FAIR      29  13  50 S18G29    29.76R WCI  17
WOLF CREEK PAS CLOUDY    12  10  92 S37G51    29.78F WCI -11
$$

COZ009-010-012-014-032>034-037-058>063-271900-
...CENTRAL COLORADO...

CITY           SKY/WX    TMP DP  RH WIND       PRES   REMARKS
ASPEN          CLOUDY    32  14  47 S15       29.68R WCI  22
BUENA VISTA    PTSUNNY   39   9  29 MISG      29.67F
COPPER MTN     NOT AVBL
BERTHOUD PASS  PTSUNNY   12   1  62 W21G37    29.62R WCI  -6
COTTONWOOD PAS FAIR      32   5  32 W7G26     29.68F WCI  26
GUNNISON       FAIR      12   3  67 SE5       29.79F WCI   4
KREMMLING      CLOUDY    39  18  41 SW20G26   29.65F
LEADVILLE      FAIR      23   4  44 SW12G24   29.66S WCI  12
MONARCH PASS   CLOUDY    16   9  73 SW35G44   29.78S WCI  -6
SALIDA         FAIR      40  14  34 S13G21    29.78F
SUNLIGHT       NOT AVBL
WILKERSON PASS FAIR      25   9  50 SW15G25   29.68S WCI  12
$$

COZ069>075-271900-
...SAN LUIS VALLEY/SANGRE DE CRISTO MOUNTAINS...

CITY           SKY/WX    TMP DP  RH WIND       PRES   REMARKS
ALAMOSA        FAIR      40  16  37 SW24G32   29.79F
LA VETA PASS   PTSUNNY   27  14  59 S25G48    29.76F WCI  11
SAGUACHE       FAIR      34  14  44 SE5       29.76F WCI  30
$$

COZ035-036-038>040-271900-
...NORTHERN COLORADO FRONT RANGE...

CITY           SKY/WX    TMP DP  RH WIND       PRES   REMARKS
DENVER INTL AP FAIR      50   8  18 S20G32    29.60F
DMNS CITY PARK   N/A     49   5  16 SW10G17   29.59F
AURORA         MOSUNNY   50   9  19 SW18G24   29.60F
FRONT RANGE AP MOSUNNY   50  10  20 S16G31    29.62
ERIE MUNI ARPT FAIR      40  16  38 N7        29.62F
BOULDER MUN AP FAIR      37  16  41 CALM      29.62F
CENTENNIAL     FAIR      48   9  20 SW14G26   29.61F
BROOMFIELD     MOSUNNY   45  10  24 NW9       29.61F
FORT COLLINS   FAIR      36  16  44 CALM      29.64F
LONGMONT       NOT AVBL
$$

COZ041-046-047-076>085-087-088-271900-
...PIKES PEAK/PALMER DIVIDE AND SOUTHERN FOOTHILLS...

CITY           SKY/WX    TMP DP  RH WIND       PRES   REMARKS
COLO. SPRINGS  FAIR      44   5  20 SE22G28   29.67F
A. F. ACADEMY  FAIR      43   6  22 SE13G18   29.65F
SCHRIEVER AFB  FAIR      42   4  20 S22G31    29.69F
ELLICOTT       NOT AVBL
FALCON         FAIR      41   5  22 S16       29.69S
FORT CARSON    FAIR      47   6  18 S21G33    29.65F
LIMON          FAIR      57   7  13 S16       29.69F
MONUMENT HILL  FAIR      41  10  28 S17G23    29.66F
TRINIDAD       FAIR      54  10  17 W24G36    29.73F
$$

COZ042>045-048>051-090-091-271900-
...NORTHEAST COLORADO...

CITY           SKY/WX    TMP DP  RH WIND       PRES   REMARKS
GREELEY ARPT   FAIR      34  16  47 VRB3      29.65
AKRON          FAIR      49   6  17 S15       29.66F
BURLINGTON     FAIR      52   9  17 SW18G24   29.71F
WRAY           NOT AVBL
STERLING       FAIR      37  25  60 CALM      29.66F
HOLYOKE        FAIR      46  21  36 S6        29.70F
FORT MORGAN    FAIR      47  17  29 SE10      29.65F
$$

COZ086-089-092>099-271900-
...SOUTHEAST COLORADO...

CITY           SKY/WX    TMP DP  RH WIND       PRES   REMARKS
PUEBLO         FAIR      45   8  22 E6        29.69F
LA JUNTA       FAIR      49  13  23 E7        29.73F
LAMAR          FAIR      54  10  17 SW6       29.73F
SPRINGFIELD      N/A     56  13  18 SW20G30   29.74F
$$




USA.gov is the U.S. government's official web portal to all federal, state and local government web resources and services.